Location: Shepherdstown, WV
(39.4326°N, 77.8042°W)
Time: 02:24:20
(UTC-04:00)

Vanguard 1 - Pass Details

Date: 05 October 2021
Orbit: 653 x 3829 km, 34.2° (Epoch: 18 October)

Event Time Altitude Azimuth Distance (km) Brightness Sun altitude
Rises 22:29:44 0° 280° (W) 6,050 14.8 -41.9°
Reaches altitude 10° 22:33:12 10° 276° (W) 5,387 14.3 -42.5°
Maximum altitude 22:50:18 56° 205° (SSW) 4,008 12.8 -45.0°
Enters shadow 22:51:53 55° 193° (SSW) 4,084 12.8 -45.3°
